Regional Weather Roundup
Issued by NWS Upton, NY

Current Version | Previous Version | Text Only | Print | Product List | Glossary Off
Versions: 1 2 3 4 5 6 7 8 9 10 11 12 13 14 15 16 17 18 19 20 21 22 23 24 25 26 27 28 29 30 31 32 33 34 35 36 37 38 39 40 41 42 43 44 45 46 47 48 49 50
000 ASUS41 KOKX 280005 RWROKX REGIONAL WEATHER ROUNDUP NATIONAL WEATHER SERVICE NEW YORK NY 700 PM EST THU NOV 27 2014 NOTE: "FAIR" INDICATES FEW OR NO CLOUDS BELOW 12,000 FEET WITH NO SIGNIFICANT WEATHER AND/OR OBSTRUCTIONS TO VISIBILITY. NYZ071-072-176-178-NJZ106-104-280100- NEW YORK CITY METRO AREA CITY SKY/WX TMP DP RH WIND PRES REMARKS CENTRAL PARK CLOUDY 37 26 64 VRB6 30.05S WCI 32 LAGUARDIA APRT CLOUDY 37 27 67 NW12 30.03R WCI 29 KENNEDY INTL MOCLDY 38 27 64 NW10 30.05R WCI 31 NEWARK/LIBERTY CLOUDY 36 29 75 W5 30.05R WCI 32 BRNX BOT. GARD N/A N/A N/A N/A W12 30.05R TETERBORO CLOUDY 36 27 69 NW6 30.03R WCI 31 $$ NYZ177-179-078>081-280100- LONG ISLAND NEW YORK CITY SKY/WX TMP DP RH WIND PRES REMARKS FARMINGDALE CLOUDY 38 30 73 NW9 30.03R WCI 31 ISLIP CLOUDY 37 29 72 NW9 30.00R WCI 30 SHIRLEY CLOUDY 37 30 75 NW7 30.02R WCI 32 WESTHAMPTON CLOUDY 37 32 82 NW6 30.02R WCI 32 MONTAUK POINT N/A 38 33 82 NW7 30.00R WCI 33 $$ NYZ052-065-067-280100- HUDSON VALLEY CITY SKY/WX TMP DP RH WIND PRES REMARKS WHITE PLAINS CLOUDY 34 29 82 NW6 30.00R WCI 29 NEWBURGH CLOUDY 30 30 100 CALM 30.03R FOG MONTGOMERY FOG 29 28 96 CALM 30.02R VSB 1/2 POUGHKEEPSIE CLOUDY 32 28 85 N5 30.03R WCI 27 ALBANY LGT SNOW 29 26 89 CALM 30.04R FOG $$ NJZ001-105-106-008-010-013-015-019>022-104-280100- NEW JERSEY CITY SKY/WX TMP DP RH WIND PRES REMARKS NEWARK/LIBERTY CLOUDY 36 29 75 W5 30.05R WCI 32 TETERBORO CLOUDY 36 27 69 NW6 30.03R WCI 31 CALDWELL CLOUDY 34 27 75 W3 30.04R MORRISTOWN NOT AVBL SOMERVILLE CLEAR 35 23 61 NW7 30.04R WCI 29 SUSSEX CLOUDY 33 25 72 W5 30.03R WCI 29 ANDOVER N/A 31 23 72 N3 30.03R TRENTON MOCLDY 35 27 72 NW6 30.06R WCI 30 MILLVILLE CLEAR 33 27 78 W7 30.08R WCI 27 ATLANTIC CITY CLEAR 33 28 81 W7 30.07R WCI 27 WRIGHTSTOWN PTCLDY 33 28 79 W5 30.04R WCI 29 TOMS RIVER MOCLDY 28 28 100 CALM 30.06R BELMAR MOCLDY 34 25 69 W5 30.04S WCI 30 $$ PAZ047>061-062-071-280100- EASTERN PENNSYLVANIA CITY SKY/WX TMP DP RH WIND PRES REMARKS PHILADELPHIA PTCLDY 37 27 67 W9 30.09R WCI 30 ALLENTOWN CLEAR 31 24 75 W6 30.06R WCI 25 SCRANTON CLEAR 28 20 71 W10 30.04R WCI 19 $$ CTZ002-004>006-009-010-012-RIZ004-006-007-MAZ004-011-015-280100- SOUTHERN NEW ENGLAND IN CT CITY SKY/WX TMP DP RH WIND PRES REMARKS BRADLEY INTL FLURRIES 33 28 81 N3 30.00R HARTFORD FLURRIES 34 28 79 VRB6 30.01R WCI 29 DANBURY CLOUDY 32 26 78 NW3 30.02R WTRBRY/OXFORD FLURRIES 30 23 74 CALM 30.00R BRIDGEPORT FLURRIES 35 30 82 NW6 30.03R WCI 30 MERIDEN CLOUDY 33 29 85 W5 30.01R WCI 29 NEW HAVEN CLOUDY 37 30 75 NW6 30.02R WCI 32 CHESTER FLURRIES 32 32 100 NW3 30.00R GROTON LGT SNOW 33 32 96 N7 30.00R FOG WCI 27 WILLIMANTIC LGT SNOW 33 30 88 CALM 30.00R FOG IN RI CITY SKY/WX TMP DP RH WIND PRES REMARKS PROVIDENCE LGT SNOW 33 31 92 N7 30.00R FOG WCI 27 BLOCK ISLAND CLOUDY 37 32 81 N9 29.97S WCI 31 WESTERLY LGT SNOW 34 32 92 N7 30.00R FOG WCI 28 IN MA CITY SKY/WX TMP DP RH WIND PRES REMARKS BOSTON CLOUDY 34 28 79 N8 30.00R WCI 27 WORCESTER CLOUDY 28 24 85 NW3 29.95S WESTFIELD CLOUDY 32 29 88 CALM 30.00R PROVINCETOWN CLOUDY 39 28 65 N5 29.98S NANTUCKET CLOUDY 39 34 82 NE3 29.97R $$ ANZ330-335-338-340-345-350-353-355-280100- COASTAL MARINE OBSERVATIONS STATION/POSITION TIME SKY/WX TEMP WIND PRES VSBY WAVE AIR SEA DIR/SP/G HT/PER (UTC) (F) (DEG/KT/KT) (MB) (MI) (FT/S) NY HARB ENTRANCE 0000 40 54 310/ 21/ 27 1016.8 4/11 4S FIRE IS 0000 52 N/A 4/10 20S FIRE ISLAND 0000 41 54 340/ 14/ 17 1015.9 5/ 9 23SW MTP 0000 N/A 5/ 9 HUDSON CANYON 0000 44 58 300/ 17/ 23 1014.8 6/11 EXECUTION ROCKS 0000 38 47 310/ 12/ 16 N/A WESTERN LI SOUND 0000 37 330/ 8/ 12 N/A 0 CENTRAL LI SOUND 2300 36 50 330/ 12/ 14 N/A 1/ 2 EASTERN LI SOUND 2300 37 52 340/ 10/ 12 N/A ROBBINS REEF 0000 36 310/ 8/ 11 1016.1 $$ >>>>>>>>>>>>>>>>>>>>>>>>>>>> KEY <<<<<<<<<<<<<<<<<<<<<<<<<<< > < > SKY/WX - SKY CONDITION/PRESENT WEATHER < > TMP - TEMPERATURE IN FAHRENHEIT < > DP - DEWPOINT IN FAHRENHEIT < > RH - RELATIVE HUMIDITY IN PERCENT < > WIND - DIRECTION AND SPEED IN MPH < > PRES - MEAN SEA LEVEL PRESSURE IN INCHES OF HG < > WCI - WIND CHILL INDEX < > VSB - VISIBILITY IN MILES < > HX - HEAT INDEX < > TC - TEMPERATURE IN CELSIUS < > VRB - VARIABLE WIND DIRECTION < > < >>>>>>>>>>>>>>>>>>>>>>>>>>>> KEY <<<<<<<<<<<<<<<<<<<<<<<<<<<

USA.gov is the U.S. government's official web portal to all federal, state and local government web resources and services.